Regional Weather Roundup
Issued by NWS

Home | Current Version | Previous Version | Text Only | Print | Product List | Glossary On
Versions: 1 2 3 4 5 6 7 8 9 10 11 12 13 14 15 16 17 18 19 20 21 22 23 24 25 26 27 28 29 30 31 32 33 34 35 36 37 38 39 40 41 42 43 44 45 46 47 48 49 50
000
ASUS43 KDMX 111501
RWRIA

WEATHER ROUNDUP FOR IOWA
NATIONAL WEATHER SERVICE DES MOINES IA
900 AM CST MON DEC 11 2017

NOTE: "FAIR" INDICATES FEW OR NO CLOUDS BELOW 12,000 FEET WITH NO
SIGNIFICANT WEATHER AND/OR OBSTRUCTIONS TO VISIBILITY.

* - THESE STATIONS ARE NOT NWS STATIONS...THUS NOT UNDER NWS
QUALITY CONTROL.  THEY ALSO DO NOT REPORT WEATHER SUCH
AS PRECIPITATION OR FOG.

IAZ001>003-012>014-020>022-031>034-043>046-111600-
   NORTHWEST IOWA

CITY           SKY/WX    TMP DP  RH WIND       PRES   REMARKS
CARROLL *      MOSUNNY   41  28  60 NW29G40   29.82R
CHEROKEE *     CLOUDY    40  30  66 NW15G23   29.84S WCI  32
DENISON *      PTSUNNY   41  27  56 NW20G29   29.88R
LE MARS *      CLOUDY    43  30  61 NW23G33   29.88R
ORANGE CITY *  CLOUDY    41  34  75 NW24G32   29.86R
SHELDON *      CLOUDY    39  32  75 NW20G29   29.82R WCI  30
SIOUX CITY     CLOUDY    44  29  55 NW35G45   29.89S
SPENCER        LGT RAIN  37  32  82 NW21G36   29.80R WCI  26
STORM LAKE *   CLOUDY    39  28  65 NW25G32   29.82R WCI  28
$$

IAZ055>058-069>071-079>083-090>094-111600-
   SOUTHWEST IOWA

CITY           SKY/WX    TMP DP  RH WIND       PRES   REMARKS
ATLANTIC *     SUNNY     45  25  45 NW24G31   29.87R
AUDUBON *      SUNNY     43  27  52 NW17G35   29.85R
CLARINDA *     CLOUDY    46  25  42 NW21G33     N/A
COUNCIL BLFS * SUNNY     46  27  46 NW26G35   29.91S
CRESTON *      SUNNY     41  23  48 NW29G39   29.84S
HARLAN  *      MOSUNNY   43  27  52 NW29G36   29.91R
LAMONI         CLOUDY    40  20  44 NW24G31   29.83R WCI  29
RED OAK *      SUNNY     46  23  39 NW22G32   29.91R
SHENANDOAH *   CLOUDY    48  27  43 NW18G38   29.94S
$$

IAZ047>049-059>061-072>074-084-111600-
   CENTRAL IOWA

CITY           SKY/WX    TMP DP  RH WIND       PRES   REMARKS
AMES           SUNNY     40  24  53 NW23G33   29.75S WCI  30
ANKENY *       SUNNY     41  23  48 W23G30    29.77F
BOONE *        CLOUDY    39  23  52 NW21G33   29.75R WCI  29
CHARITON *     CLOUDY    39  21  48 W20G26    29.77F WCI  30
DES MOINES     MOSUNNY   42  22  44 W23G35    29.77F
GRINNELL*      SUNNY     33  25  72 W12       29.73F WCI  25
KNOXVILLE *    CLOUDY    37  21  52 W15G21    29.75S WCI  28
MARSHALLTOWN   PTSUNNY   35  25  66 W7        29.72F WCI  29
NEWTON *       SUNNY     36  25  64 W13       29.74F WCI  27
PELLA *        CLOUDY    37  25  60 W9        29.76S WCI  31
$$

IAZ004>006-015-016-023>025-035-036-111600-
   NORTH CENTRAL IOWA

CITY           SKY/WX    TMP DP  RH WIND       PRES   REMARKS
ALGONA *       CLOUDY    39  30  70 NW25G37   29.75R WCI  28
CLARION *      CLOUDY    36  27  69 NW22      29.73S WCI  24
ESTHERVILLE    CLOUDY    36  32  85 NW20G32   29.77R WCI  25
FORT DODGE *   CLOUDY    39  27  62 NW17G26   29.77R WCI  30
MASON CITY     LGT SNOW  33  24  69 NW10      29.73R WCI  25
FOREST CITY *  CLOUDY    34  28  80 NW10      29.72S WCI  26
WEBSTER CITY * MOSUNNY   39  25  56 NW25G33   29.73R WCI  28
IOWA FALLS *   CLOUDY    36  25  64 W14       29.72F WCI  27
$$

IAZ007>011-017>019-026>030-037>042-050>054-066-111600-
   NORTHEAST IOWA

CITY           SKY/WX    TMP DP  RH WIND       PRES   REMARKS
CEDAR RAPIDS   CLOUDY    30  24  78 S6        29.73F WCI  24
CHARLES CITY * CLOUDY    32  27  80 SE3       29.71F
CLINTON *      CLOUDY    32  26  78 SE13      29.77F WCI  22
DECORAH *      CLOUDY    28  25  86 S6        29.71F WCI  22
DUBUQUE        MOSUNNY   29  24  82 S6        29.75F WCI  23
MONTICELLO *   CLOUDY    30  25  80 SE6       29.74F WCI  24
OELWEIN *      PTSUNNY   30  28  93 SE8       29.73F WCI  23
WATERLOO       PTSUNNY   33  25  72 S7        29.72F WCI  27
$$

IAZ064-065-067-068-078-111600-
   EAST CENTRAL IOWA

CITY           SKY/WX    TMP DP  RH WIND       PRES   REMARKS
DAVENPORT      MOSUNNY   34  25  69 SE10      29.78F WCI  26
IOWA CITY      CLOUDY    32  25  75 CALM      29.77F
MT. PLEASANT * CLOUDY    35  26  69 S10       29.75F WCI  27
MUSCATINE *    CLOUDY    34  27  75 CALM      29.76F
QUAD CITIES    PTSUNNY   34  26  72 SE6       29.76F WCI  29
$$

IAZ062-063-075>077-085>089-095>099-111600-
   SOUTHEAST IOWA

CITY           SKY/WX    TMP DP  RH WIND       PRES   REMARKS
BURLINGTON     MOSUNNY   36  28  73 S8        29.75F WCI  30
FAIRFIELD *    CLOUDY    34  25  69 S8        29.73F WCI  27
FORT MADISON * MOSUNNY   36  27  69 S12       29.77F WCI  27
KEOKUK *       MOSUNNY   39  27  60 S12G18    29.77F WCI  32
OSKALOOSA *      N/A     34  26  71 W13       29.74F WCI  25
OTTUMWA        CLOUDY    36  25  64 W9        29.74F WCI  29
WASHINGTON *   CLOUDY    36  27  69 SW8       29.75F WCI  29
$$

ABBREVIATIONS USED IN REMARKS
   TC - TEMPERATURES IN CELSIUS
  WCI - WIND CHILL INDEX
   HX - HEAT INDEX
  VSB - VISIBILITY
$$





USA.gov is the U.S. government's official web portal to all federal, state and local government web resources and services.